START_TIME,STEP,MOV.,M29,t_acc.,H22,t_acc.,H26,t_acc.,H30,t_acc.
1979-03-01 09:00:21.350 ,6,1,0.,24.0,0.,24.0,0.,24.0,0.,24.0
1979-03-01 09:00:45.350 ,5,1,0.,24.0,0.,24.0,0.,24.0,0.,24.0
1979-03-01 09:01:09.350 ,4,1,0.,24.0,0.,24.0,0.,24.0,0.,24.0
1979-03-01 09:01:33.350 ,3,1,0.,24.0,0.,24.0,0.,24.0,0.,24.0
1979-03-01 09:01:57.350 ,2,1,0.,24.0,0.,24.0,0.,24.0,0.,24.0
1979-03-01 09:02:21.350 ,1,1,0.,24.0,0.,24.0,0.,24.0,0.,24.0
1979-03-01 09:02:45.350 ,0,1,0.,24.0,0.,24.0,0.,24.0,0.,24.0
1979-03-01 09:03:09.350 ,0,1,0.,24.0,0.,24.0,0.,24.0,0.,24.0
1979-03-01 09:03:33.350 ,1,1,0.,24.0,0.,24.0,0.,24.0,0.,24.0
1979-03-01 09:03:57.350 ,2,1,0.,24.0,0.,24.0,0.,24.0,0.,24.0
1979-03-01 09:04:21.350 ,3,1,0.,24.0,0.,24.0,0.,24.0,0.,24.0
1979-03-01 09:04:45.350 ,4,1,0.,24.0,0.,24.0,0.,24.0,0.,24.0
1979-03-01 09:05:09.350 ,5,1,0.,24.0,0.,24.0,0.,24.0,0.,24.0
1979-03-01 09:05:33.350 ,6,1,0.,24.0,0.,24.0,0.,24.0,0.,24.0
1979-03-01 09:05:57.350 ,7,1,0.,24.0,0.,24.0,0.,24.0,0.,24.0
1979-03-01 09:06:21.350 ,7,1,0.,24.0,0.,24.0,0.,24.0,0.,24.0
1979-03-01 09:06:45.350 ,6,1,0.,24.0,0.,24.0,0.,24.0,0.,24.0
1979-03-01 09:07:09.350 ,5,1,0.,24.0,0.,24.0,0.,24.0,0.,24.0
1979-03-01 09:07:33.350 ,4,1,0.,24.0,0.,24.0,0.,24.0,0.,24.0
1979-03-01 09:07:57.350 ,3,1,0.,24.0,0.,24.0,0.,24.0,0.,24.0
1979-03-01 09:08:21.350 ,2,1,0.,24.0,0.,24.0,0.,24.0,0.,24.0
1979-03-01 09:08:45.350 ,1,1,0.,24.0,0.,24.0,0.,24.0,0.,24.0
1979-03-01 09:09:09.350 ,0,1,0.,24.0,0.,24.0,0.,24.0,0.,24.0
1979-03-01 09:09:33.350 ,0,1,0.,24.0,0.,24.0,0.,24.0,0.,24.0
1979-03-01 09:09:57.350 ,1,1,0.,24.0,0.,24.0,0.,24.0,0.,24.0
1979-03-01 09:10:21.350 ,2,1,0.,24.0,0.,24.0,0.,24.0,0.,24.0
1979-03-01 09:10:45.350 ,3,1,0.,24.0,0.,24.0,0.,24.0,0.,24.0
1979-03-01 09:11:09.350 ,4,1,0.,24.0,0.,24.0,0.,24.0,0.,24.0
1979-03-01 09:11:33.350 ,5,1,0.,24.0,0.,24.0,0.,24.0,0.,24.0
1979-03-01 09:11:57.350 ,6,1,0.,24.0,0.,24.0,0.,24.0,0.,24.0
1979-03-01 09:12:21.350 ,7,1,0.,24.0,0.,24.0,0.,24.0,0.,24.0
1979-03-01 09:12:45.350 ,7,1,0.,24.0,0.,24.0,0.,24.0,0.,24.0
1979-03-01 09:13:09.350 ,6,1,0.,24.0,0.,24.0,0.,24.0,0.,24.0
1979-03-01 09:13:33.350 ,5,1,0.,24.0,0.,24.0,0.,24.0,0.,24.0
1979-03-01 09:13:57.350 ,4,1,0.,24.0,0.,24.0,0.,24.0,0.,24.0
1979-03-01 09:14:21.350 ,3,1,0.,24.0,0.,24.0,0.,24.0,0.,24.0
1979-03-01 09:14:45.350 ,2,1,0.,24.0,0.,24.0,0.,24.0,0.,24.0
1979-03-01 09:15:09.350 ,1,1,0.,24.0,0.,24.0,0.,24.0,0.,24.0
1979-03-01 09:15:33.350 ,0,1,0.,24.0,0.,24.0,0.,24.0,0.,24.0
1979-03-01 09:15:57.350 ,0,1,0.,24.0,0.,24.0,0.,24.0,0.,24.0
1979-03-01 09:16:21.350 ,1,1,0.,24.0,0.,24.0,0.,24.0,0.,24.0
1979-03-01 09:16:45.350 ,2,1,0.,24.0,0.,24.0,0.,24.0,0.,24.0
1979-03-01 09:17:09.350 ,3,1,1.,24.0,0.,24.0,0.,24.0,0.,24.0
1979-03-01 09:17:33.350 ,4,1,0.,24.0,0.,24.0,0.,24.0,0.,24.0
1979-03-01 09:17:57.350 ,5,1,0.,24.0,0.,24.0,0.,24.0,0.,24.0
1979-03-01 09:18:21.350 ,6,1,0.,24.0,0.,24.0,0.,24.0,0.,24.0
1979-03-01 09:18:45.350 ,7,1,0.,24.0,0.,24.0,0.,24.0,0.,24.0
1979-03-01 09:19:09.350 ,7,1,0.,24.0,0.,24.0,0.,24.0,0.,24.0
1979-03-01 09:19:33.350 ,6,1,0.,24.0,0.,24.0,0.,24.0,0.,24.0
1979-03-01 09:19:57.350 ,5,1,0.,24.0,0.,24.0,0.,24.0,0.,24.0
1979-03-01 09:20:21.350 ,4,1,0.,24.0,0.,24.0,0.,24.0,0.,24.0
1979-03-01 09:20:45.350 ,3,1,0.,24.0,0.,24.0,0.,24.0,0.,24.0
1979-03-01 09:21:09.350 ,2,1,0.,24.0,0.,24.0,0.,24.0,0.,24.0
1979-03-01 09:21:33.350 ,1,1,0.,24.0,0.,24.0,0.,24.0,0.,24.0
1979-03-01 09:21:57.350 ,0,1,0.,24.0,0.,24.0,0.,24.0,0.,24.0
1979-03-01 09:22:21.350 ,0,1,0.,24.0,0.,24.0,0.,24.0,0.,24.0
1979-03-01 09:22:45.350 ,1,1,0.,24.0,0.,24.0,0.,24.0,0.,24.0
1979-03-01 09:23:09.350 ,2,1,0.,24.0,0.,24.0,0.,24.0,0.,24.0
1979-03-01 09:23:33.350 ,3,1,0.,24.0,0.,24.0,0.,24.0,0.,24.0
1979-03-01 09:23:57.350 ,4,1,0.,24.0,0.,24.0,0.,24.0,0.,24.0
1979-03-01 09:24:21.350 ,5,1,0.,24.0,0.,24.0,0.,24.0,0.,24.0
1979-03-01 09:24:45.350 ,6,1,1.,24.0,0.,24.0,0.,24.0,0.,24.0
1979-03-01 09:25:09.350 ,7,1,0.,24.0,0.,24.0,0.,24.0,0.,24.0
1979-03-01 09:25:33.350 ,7,1,0.,24.0,0.,24.0,0.,24.0,0.,24.0
1979-03-01 09:25:57.350 ,6,1,0.,24.0,0.,24.0,0.,24.0,0.,24.0
1979-03-01 09:26:21.350 ,5,1,0.,24.0,0.,24.0,0.,24.0,0.,24.0
1979-03-01 09:26:45.350 ,4,1,1.,24.0,0.,24.0,0.,24.0,0.,24.0
1979-03-01 09:27:09.350 ,3,1,0.,24.0,0.,24.0,0.,24.0,0.,24.0
1979-03-01 09:27:33.350 ,2,1,0.,24.0,0.,24.0,0.,24.0,0.,24.0
1979-03-01 09:27:57.350 ,1,1,0.,24.0,0.,24.0,0.,24.0,0.,24.0
1979-03-01 09:28:21.350 ,0,1,1.,24.0,0.,24.0,0.,24.0,0.,24.0
1979-03-01 09:28:45.350 ,0,1,0.,24.0,0.,24.0,0.,24.0,0.,24.0
1979-03-01 09:29:09.350 ,1,1,0.,24.0,0.,24.0,0.,24.0,0.,24.0
1979-03-01 09:29:33.350 ,2,1,0.,24.0,0.,24.0,0.,24.0,0.,24.0
1979-03-01 09:29:57.350 ,3,1,0.,24.0,0.,24.0,0.,24.0,0.,24.0
1979-03-01 09:30:21.350 ,4,1,1.,24.0,0.,24.0,0.,24.0,0.,24.0
1979-03-01 09:30:45.350 ,5,1,0.,24.0,0.,24.0,0.,24.0,0.,24.0
1979-03-01 09:31:09.350 ,6,1,0.,24.0,0.,24.0,0.,24.0,0.,24.0
1979-03-01 09:31:33.350 ,7,1,0.,24.0,0.,24.0,0.,24.0,0.,24.0
1979-03-01 09:31:57.350 ,7,1,0.,24.0,0.,24.0,0.,24.0,0.,24.0
1979-03-01 09:32:21.350 ,6,1,0.,24.0,0.,24.0,0.,24.0,0.,24.0
1979-03-01 09:32:45.350 ,5,1,0.,24.0,0.,24.0,0.,24.0,0.,24.0
1979-03-01 09:33:09.350 ,4,1,0.,24.0,0.,24.0,0.,24.0,0.,24.0
1979-03-01 09:33:33.350 ,3,1,0.,24.0,0.,24.0,0.,24.0,0.,24.0
1979-03-01 09:33:57.350 ,2,1,0.,24.0,0.,24.0,0.,24.0,0.,24.0
1979-03-01 09:34:21.350 ,1,1,0.,24.0,0.,24.0,0.,24.0,0.,24.0
1979-03-01 09:34:45.350 ,0,1,0.,24.0,0.,24.0,0.,24.0,0.,24.0
1979-03-01 09:35:09.350 ,0,1,0.,24.0,0.,24.0,0.,24.0,0.,24.0
1979-03-01 09:35:33.350 ,1,1,0.,24.0,0.,24.0,0.,24.0,0.,24.0
1979-03-01 09:35:57.350 ,2,1,0.,24.0,0.,24.0,0.,24.0,0.,24.0
1979-03-01 09:36:21.350 ,3,1,0.,24.0,0.,24.0,0.,24.0,0.,24.0
1979-03-01 09:36:45.350 ,4,1,0.,24.0,0.,24.0,0.,24.0,0.,24.0
1979-03-01 09:37:09.350 ,5,1,0.,24.0,0.,24.0,0.,24.0,0.,24.0
1979-03-01 09:37:33.350 ,6,1,1.,24.0,0.,24.0,0.,24.0,0.,24.0
1979-03-01 09:37:57.350 ,7,1,0.,24.0,0.,24.0,0.,24.0,0.,24.0
1979-03-01 09:38:21.350 ,7,1,0.,24.0,0.,24.0,0.,24.0,0.,24.0
1979-03-01 09:38:45.350 ,6,1,0.,24.0,0.,24.0,0.,24.0,0.,24.0
1979-03-01 09:39:09.350 ,5,1,0.,24.0,0.,24.0,0.,24.0,0.,24.0
1979-03-01 09:39:33.350 ,4,1,0.,24.0,0.,24.0,0.,24.0,0.,24.0
1979-03-01 09:39:57.350 ,3,1,0.,24.0,0.,24.0,0.,24.0,0.,24.0
1979-03-01 09:40:21.350 ,2,1,0.,24.0,0.,24.0,0.,24.0,0.,24.0
1979-03-01 09:40:45.350 ,1,1,0.,24.0,0.,24.0,0.,24.0,0.,24.0
1979-03-01 09:41:09.350 ,0,1,0.,24.0,0.,24.0,0.,24.0,0.,24.0
1979-03-01 09:41:33.350 ,0,1,0.,24.0,0.,24.0,0.,24.0,0.,24.0
1979-03-01 09:41:57.350 ,1,1,0.,24.0,0.,24.0,0.,24.0,0.,24.0
1979-03-01 09:42:21.350 ,2,1,0.,24.0,0.,24.0,0.,24.0,0.,24.0
1979-03-01 09:42:45.350 ,3,1,0.,24.0,0.,24.0,0.,24.0,0.,24.0
1979-03-01 09:43:09.350 ,4,1,0.,24.0,0.,24.0,0.,24.0,0.,24.0
1979-03-01 09:43:33.350 ,5,1,0.,24.0,0.,24.0,0.,24.0,0.,24.0
1979-03-01 09:43:57.350 ,6,1,0.,24.0,0.,24.0,0.,24.0,0.,24.0
1979-03-01 09:44:21.350 ,7,1,0.,24.0,0.,24.0,0.,24.0,0.,24.0
1979-03-01 09:44:45.350 ,7,1,0.,24.0,0.,24.0,0.,24.0,0.,24.0
1979-03-01 09:45:09.350 ,6,1,0.,24.0,0.,24.0,0.,24.0,0.,24.0
1979-03-01 09:45:33.350 ,5,1,0.,24.0,0.,24.0,0.,24.0,0.,24.0
1979-03-01 09:45:57.350 ,4,1,0.,24.0,0.,24.0,0.,24.0,0.,24.0
1979-03-01 09:46:21.350 ,3,1,0.,24.0,0.,24.0,0.,24.0,0.,24.0
1979-03-01 09:46:45.350 ,2,1,0.,24.0,0.,24.0,0.,24.0,0.,24.0
1979-03-01 09:47:09.350 ,1,1,0.,24.0,0.,24.0,0.,24.0,0.,24.0
1979-03-01 09:47:33.350 ,0,1,0.,24.0,0.,24.0,0.,24.0,0.,24.0
1979-03-01 09:47:57.350 ,0,1,0.,24.0,0.,24.0,0.,24.0,0.,24.0
1979-03-01 09:48:21.350 ,1,1,0.,24.0,0.,24.0,0.,24.0,0.,24.0
1979-03-01 09:48:45.350 ,2,1,0.,24.0,0.,24.0,0.,24.0,0.,24.0
1979-03-01 09:49:09.350 ,3,1,0.,24.0,0.,24.0,0.,24.0,0.,24.0
1979-03-01 09:49:33.350 ,4,1,0.,24.0,0.,24.0,0.,24.0,0.,24.0
1979-03-01 09:49:57.350 ,5,1,0.,24.0,0.,24.0,0.,24.0,0.,24.0
1979-03-01 09:50:21.350 ,6,1,0.,24.0,0.,24.0,0.,24.0,0.,24.0
1979-03-01 09:50:45.350 ,7,1,0.,24.0,0.,24.0,0.,24.0,0.,24.0
1979-03-01 09:51:09.350 ,7,1,0.,24.0,0.,24.0,0.,24.0,0.,24.0
1979-03-01 09:51:33.350 ,6,1,0.,24.0,0.,24.0,0.,24.0,0.,24.0
1979-03-01 09:51:57.350 ,5,1,0.,24.0,0.,24.0,0.,24.0,0.,24.0
1979-03-01 09:52:21.350 ,4,1,0.,24.0,0.,24.0,0.,24.0,0.,24.0
1979-03-01 09:52:45.350 ,3,1,0.,24.0,0.,24.0,0.,24.0,0.,24.0
1979-03-01 09:53:09.350 ,2,1,0.,24.0,0.,24.0,0.,24.0,0.,24.0
1979-03-01 09:53:33.350 ,1,1,0.,24.0,0.,24.0,0.,24.0,0.,24.0
1979-03-01 09:53:57.350 ,0,1,0.,24.0,0.,24.0,0.,24.0,0.,24.0
1979-03-01 09:54:21.350 ,0,1,0.,24.0,0.,24.0,0.,24.0,0.,24.0
1979-03-01 09:54:45.350 ,1,1,0.,24.0,0.,24.0,0.,24.0,0.,24.0
1979-03-01 09:55:09.350 ,2,1,0.,24.0,0.,24.0,0.,24.0,0.,24.0
1979-03-01 09:55:33.350 ,3,1,0.,24.0,0.,24.0,0.,24.0,0.,24.0
1979-03-01 09:55:57.350 ,4,1,0.,24.0,0.,24.0,0.,24.0,0.,24.0
1979-03-01 09:56:21.350 ,5,1,0.,24.0,0.,24.0,0.,24.0,0.,24.0
1979-03-01 09:56:45.350 ,6,1,0.,24.0,0.,24.0,0.,24.0,0.,24.0
1979-03-01 09:57:09.350 ,7,1,0.,24.0,0.,24.0,0.,24.0,0.,24.0
1979-03-01 09:57:33.350 ,7,1,0.,24.0,0.,24.0,0.,24.0,0.,24.0
1979-03-01 09:57:57.350 ,6,1,0.,24.0,0.,24.0,0.,24.0,0.,24.0
1979-03-01 09:58:21.350 ,5,1,0.,24.0,0.,24.0,0.,24.0,0.,24.0
1979-03-01 09:58:45.350 ,4,1,0.,24.0,0.,24.0,0.,24.0,0.,24.0
1979-03-01 09:59:09.350 ,3,1,0.,24.0,0.,24.0,0.,24.0,0.,24.0
1979-03-01 09:59:33.350 ,2,1,0.,24.0,0.,24.0,0.,24.0,0.,24.0
1979-03-01 09:59:57.350 ,1,1,0.,24.0,0.,24.0,0.,24.0,0.,24.0
1979-03-01 10:00:21.350 ,0,1,0.,24.0,0.,24.0,0.,24.0,0.,24.0
1979-03-01 10:00:45.350 ,0,1,0.,24.0,0.,24.0,0.,24.0,0.,24.0
1979-03-01 10:01:09.350 ,1,1,0.,24.0,0.,24.0,0.,24.0,0.,24.0
1979-03-01 10:01:33.350 ,2,1,0.,24.0,0.,24.0,0.,24.0,0.,24.0
1979-03-01 10:01:57.350 ,3,1,0.,24.0,0.,24.0,0.,24.0,0.,24.0
1979-03-01 10:02:21.350 ,4,1,0.,24.0,0.,24.0,0.,24.0,0.,24.0
1979-03-01 10:02:45.350 ,5,1,1.,24.0,0.,24.0,0.,24.0,0.,24.0
1979-03-01 10:03:09.350 ,6,1,0.,24.0,0.,24.0,0.,24.0,0.,24.0
1979-03-01 10:03:33.350 ,7,1,0.,24.0,0.,24.0,0.,24.0,0.,24.0
1979-03-01 10:03:57.350 ,7,1,0.,24.0,0.,24.0,0.,24.0,0.,24.0
1979-03-01 10:04:21.350 ,6,1,0.,24.0,0.,24.0,0.,24.0,0.,24.0
1979-03-01 10:04:45.350 ,5,1,0.,24.0,0.,24.0,0.,24.0,0.,24.0
1979-03-01 10:05:09.350 ,4,1,0.,24.0,0.,24.0,0.,24.0,0.,24.0
1979-03-01 10:05:33.350 ,3,1,0.,24.0,0.,24.0,0.,24.0,0.,24.0
1979-03-01 10:05:57.350 ,2,1,0.,24.0,0.,24.0,0.,24.0,0.,24.0
1979-03-01 10:06:21.350 ,1,1,0.,24.0,0.,24.0,0.,24.0,0.,24.0
1979-03-01 10:06:45.350 ,0,1,0.,24.0,0.,24.0,0.,24.0,0.,24.0
1979-03-01 10:07:09.350 ,0,1,0.,24.0,0.,24.0,0.,24.0,0.,24.0
1979-03-01 10:07:33.350 ,1,1,0.,24.0,0.,24.0,0.,24.0,0.,24.0
1979-03-01 10:08:45.350 ,0,0,0.,24.0,0.,24.0,0.,24.0,0.,24.0
1979-03-01 10:09:09.350 ,5,1,0.,24.0,0.,24.0,0.,24.0,0.,24.0
1979-03-01 10:09:33.350 ,6,1,0.,24.0,0.,24.0,0.,24.0,0.,24.0
1979-03-01 10:09:57.350 ,7,1,0.,24.0,0.,24.0,0.,24.0,0.,24.0
1979-03-01 10:10:21.350 ,7,1,0.,24.0,0.,24.0,0.,24.0,0.,24.0
1979-03-01 10:10:45.350 ,6,1,0.,24.0,0.,24.0,0.,24.0,0.,24.0
1979-03-01 10:11:09.350 ,5,1,0.,24.0,0.,24.0,0.,24.0,0.,24.0
1979-03-01 10:11:33.350 ,4,1,0.,24.0,0.,24.0,0.,24.0,0.,24.0
1979-03-01 10:11:57.350 ,3,1,0.,24.0,0.,24.0,0.,24.0,0.,24.0
1979-03-01 10:12:21.350 ,2,1,0.,24.0,0.,24.0,0.,24.0,0.,24.0
1979-03-01 10:12:45.350 ,1,1,0.,24.0,0.,24.0,0.,24.0,0.,24.0
1979-03-01 10:13:09.350 ,0,1,0.,24.0,0.,24.0,0.,24.0,0.,24.0
1979-03-01 10:13:33.350 ,0,1,0.,24.0,0.,24.0,0.,24.0,0.,24.0
1979-03-01 10:13:57.350 ,1,1,0.,24.0,0.,24.0,0.,24.0,0.,24.0
1979-03-01 10:14:21.350 ,2,1,0.,24.0,0.,24.0,0.,24.0,0.,24.0
1979-03-01 10:14:45.350 ,3,1,0.,24.0,0.,24.0,0.,24.0,0.,24.0
1979-03-01 10:15:09.350 ,4,1,0.,24.0,0.,24.0,0.,24.0,0.,24.0
1979-03-01 10:15:33.350 ,5,1,0.,24.0,0.,24.0,0.,24.0,0.,24.0
1979-03-01 10:15:57.350 ,6,1,0.,24.0,0.,24.0,0.,24.0,0.,24.0
1979-03-01 10:16:21.350 ,7,1,0.,24.0,0.,24.0,0.,24.0,0.,24.0
1979-03-01 10:16:45.350 ,7,1,0.,24.0,0.,24.0,0.,24.0,0.,24.0
1979-03-01 10:17:09.350 ,6,1,0.,24.0,0.,24.0,0.,24.0,0.,24.0
1979-03-01 10:17:33.350 ,5,1,0.,24.0,0.,24.0,0.,24.0,0.,24.0
1979-03-01 10:17:57.350 ,4,1,0.,24.0,0.,24.0,0.,24.0,0.,24.0
1979-03-01 10:18:21.350 ,3,1,0.,24.0,0.,24.0,0.,24.0,0.,24.0
1979-03-01 10:18:45.350 ,2,1,0.,24.0,0.,24.0,0.,24.0,0.,24.0
1979-03-01 10:19:09.350 ,1,1,0.,24.0,0.,24.0,0.,24.0,0.,24.0
1979-03-01 10:19:33.350 ,0,1,0.,24.0,0.,24.0,0.,24.0,0.,24.0
1979-03-01 10:19:57.350 ,0,1,0.,24.0,0.,24.0,0.,24.0,0.,24.0
1979-03-01 10:20:21.350 ,1,1,1.,24.0,0.,24.0,0.,24.0,0.,24.0
1979-03-01 10:20:45.350 ,2,1,0.,24.0,0.,24.0,0.,24.0,0.,24.0
1979-03-01 10:21:09.350 ,3,1,0.,24.0,0.,24.0,0.,24.0,0.,24.0
1979-03-01 10:21:33.350 ,4,1,0.,24.0,0.,24.0,0.,24.0,0.,24.0
1979-03-01 10:21:57.350 ,5,1,0.,24.0,0.,24.0,0.,24.0,0.,24.0
1979-03-01 10:22:21.350 ,6,1,0.,24.0,0.,24.0,0.,24.0,0.,24.0
1979-03-01 10:22:45.350 ,7,1,0.,24.0,0.,24.0,0.,24.0,0.,24.0
1979-03-01 10:23:09.350 ,7,1,0.,24.0,0.,24.0,0.,24.0,0.,24.0
1979-03-01 10:23:33.350 ,6,1,0.,24.0,0.,24.0,0.,24.0,0.,24.0
1979-03-01 10:23:57.350 ,5,1,0.,24.0,0.,24.0,0.,24.0,0.,24.0
1979-03-01 10:24:21.350 ,4,1,0.,24.0,0.,24.0,0.,24.0,0.,24.0
1979-03-01 10:24:45.350 ,3,1,0.,24.0,0.,24.0,0.,24.0,0.,24.0
1979-03-01 10:25:09.350 ,2,1,0.,24.0,0.,24.0,0.,24.0,0.,24.0
1979-03-01 10:25:33.350 ,1,1,0.,24.0,0.,24.0,0.,24.0,0.,24.0
1979-03-01 10:25:57.350 ,0,1,0.,24.0,0.,24.0,0.,24.0,0.,24.0
1979-03-01 10:26:21.350 ,0,1,0.,24.0,0.,24.0,0.,24.0,0.,24.0
1979-03-01 10:26:45.350 ,1,1,0.,24.0,0.,24.0,0.,24.0,0.,24.0
1979-03-01 10:27:09.350 ,2,1,0.,24.0,0.,24.0,0.,24.0,0.,24.0
1979-03-01 10:27:33.350 ,3,1,0.,24.0,0.,24.0,0.,24.0,0.,24.0
1979-03-01 10:27:57.350 ,4,1,0.,24.0,0.,24.0,0.,24.0,0.,24.0
1979-03-01 10:28:21.350 ,5,1,0.,24.0,0.,24.0,0.,24.0,0.,24.0
1979-03-01 10:28:45.350 ,6,1,0.,24.0,0.,24.0,0.,24.0,0.,24.0
1979-03-01 10:29:09.350 ,7,1,0.,24.0,0.,24.0,0.,24.0,0.,24.0
1979-03-01 10:29:33.350 ,7,1,0.,24.0,0.,24.0,0.,24.0,0.,24.0
1979-03-01 10:29:57.350 ,6,1,0.,24.0,0.,24.0,0.,24.0,0.,24.0
1979-03-01 10:30:21.350 ,5,1,0.,24.0,0.,24.0,0.,24.0,0.,24.0
1979-03-01 10:30:45.350 ,4,1,0.,24.0,0.,24.0,0.,24.0,0.,24.0
1979-03-01 10:31:09.350 ,3,1,0.,24.0,0.,24.0,0.,24.0,0.,24.0
1979-03-01 10:31:33.350 ,2,1,0.,24.0,0.,24.0,0.,24.0,0.,24.0
1979-03-01 10:31:57.350 ,1,1,0.,24.0,0.,24.0,0.,24.0,0.,24.0
1979-03-01 10:32:21.350 ,0,1,0.,24.0,0.,24.0,0.,24.0,0.,24.0
1979-03-01 10:32:45.350 ,0,1,0.,24.0,0.,24.0,0.,24.0,0.,24.0
1979-03-01 10:33:09.350 ,1,1,0.,24.0,0.,24.0,0.,24.0,0.,24.0
1979-03-01 10:33:33.350 ,2,1,0.,24.0,0.,24.0,0.,24.0,0.,24.0
1979-03-01 10:33:57.350 ,3,1,0.,24.0,0.,24.0,0.,24.0,0.,24.0
1979-03-01 10:34:21.350 ,4,1,0.,24.0,0.,24.0,0.,24.0,0.,24.0
1979-03-01 10:34:45.350 ,5,1,0.,24.0,0.,24.0,0.,24.0,0.,24.0
1979-03-01 10:35:09.350 ,6,1,0.,24.0,0.,24.0,0.,24.0,0.,24.0
1979-03-01 10:35:33.350 ,7,1,0.,24.0,0.,24.0,0.,24.0,0.,24.0
1979-03-01 10:35:57.350 ,7,1,0.,24.0,0.,24.0,0.,24.0,0.,24.0
1979-03-01 10:36:21.350 ,6,1,0.,24.0,0.,24.0,0.,24.0,0.,24.0
1979-03-01 10:36:45.350 ,5,1,0.,24.0,0.,24.0,0.,24.0,0.,24.0
1979-03-01 10:37:09.350 ,4,1,0.,24.0,0.,24.0,0.,24.0,0.,24.0
1979-03-01 10:37:33.350 ,3,1,0.,24.0,0.,24.0,0.,24.0,0.,24.0
1979-03-01 10:37:57.350 ,2,1,0.,24.0,0.,24.0,0.,24.0,0.,24.0
1979-03-01 10:38:21.350 ,1,1,0.,24.0,0.,24.0,0.,24.0,0.,24.0
1979-03-01 10:38:45.350 ,0,1,0.,24.0,0.,24.0,0.,24.0,0.,24.0
1979-03-01 10:39:09.350 ,0,1,0.,24.0,0.,24.0,0.,24.0,0.,24.0
1979-03-01 10:39:33.350 ,1,1,0.,24.0,0.,24.0,0.,24.0,0.,24.0
1979-03-01 10:39:57.350 ,2,1,0.,24.0,0.,24.0,0.,24.0,0.,24.0
1979-03-01 10:40:21.350 ,3,1,0.,24.0,0.,24.0,0.,24.0,0.,24.0
1979-03-01 10:40:45.350 ,4,1,0.,24.0,0.,24.0,0.,24.0,0.,24.0
1979-03-01 10:41:09.350 ,5,1,0.,24.0,0.,24.0,0.,24.0,0.,24.0
1979-03-01 10:41:33.350 ,6,1,0.,24.0,0.,24.0,0.,24.0,0.,24.0
1979-03-01 10:41:57.350 ,7,1,0.,24.0,0.,24.0,0.,24.0,0.,24.0
1979-03-01 10:42:21.350 ,7,1,0.,24.0,0.,24.0,0.,24.0,0.,24.0
1979-03-01 10:42:45.350 ,6,1,0.,24.0,0.,24.0,0.,24.0,0.,24.0
1979-03-01 10:43:09.350 ,5,1,0.,24.0,0.,24.0,0.,24.0,0.,24.0
1979-03-01 10:43:33.350 ,4,1,0.,24.0,0.,24.0,0.,24.0,0.,24.0
1979-03-01 10:43:57.350 ,3,1,0.,24.0,0.,24.0,0.,24.0,0.,24.0
1979-03-01 10:44:21.350 ,2,1,0.,24.0,0.,24.0,0.,24.0,0.,24.0
1979-03-01 10:44:45.350 ,1,1,0.,24.0,0.,24.0,0.,24.0,0.,24.0
1979-03-01 10:45:09.350 ,0,1,0.,24.0,0.,24.0,0.,24.0,0.,24.0
1979-03-01 10:45:33.350 ,0,1,0.,24.0,0.,24.0,0.,24.0,0.,24.0
1979-03-01 10:45:57.350 ,1,1,0.,24.0,0.,24.0,0.,24.0,0.,24.0
1979-03-01 10:46:21.350 ,2,1,0.,24.0,0.,24.0,0.,24.0,0.,24.0
1979-03-01 10:46:45.350 ,3,1,0.,24.0,0.,24.0,0.,24.0,0.,24.0
1979-03-01 10:47:09.350 ,4,1,0.,24.0,0.,24.0,0.,24.0,0.,24.0
1979-03-01 10:47:33.350 ,5,1,0.,24.0,0.,24.0,0.,24.0,0.,24.0
1979-03-01 10:47:57.350 ,6,1,0.,24.0,0.,24.0,0.,24.0,0.,24.0
1979-03-01 10:48:21.350 ,7,1,0.,24.0,0.,24.0,0.,24.0,0.,24.0
1979-03-01 10:48:45.350 ,7,1,0.,24.0,0.,24.0,0.,24.0,0.,24.0
1979-03-01 10:49:09.350 ,6,1,0.,24.0,0.,24.0,0.,24.0,0.,24.0
1979-03-01 10:49:33.350 ,5,1,0.,24.0,0.,24.0,0.,24.0,0.,24.0
1979-03-01 10:49:57.350 ,4,1,1.,24.0,0.,24.0,0.,24.0,0.,24.0
1979-03-01 10:50:21.350 ,3,1,0.,24.0,0.,24.0,0.,24.0,0.,24.0
1979-03-01 10:50:45.350 ,2,1,0.,24.0,0.,24.0,0.,24.0,0.,24.0
1979-03-01 10:51:09.350 ,1,1,0.,24.0,0.,24.0,0.,24.0,0.,24.0
1979-03-01 10:51:33.350 ,0,1,0.,24.0,0.,24.0,0.,24.0,0.,24.0
1979-03-01 10:51:57.350 ,0,1,0.,24.0,0.,24.0,0.,24.0,0.,24.0
1979-03-01 10:52:21.350 ,1,1,0.,24.0,0.,24.0,0.,24.0,0.,24.0
1979-03-01 10:52:45.350 ,2,1,0.,24.0,0.,24.0,0.,24.0,0.,24.0
1979-03-01 10:53:09.350 ,3,1,0.,24.0,0.,24.0,0.,24.0,0.,24.0
1979-03-01 10:53:33.350 ,0,0,0.,24.0,0.,24.0,0.,24.0,0.,24.0
1979-03-01 10:53:57.350 ,5,1,0.,24.0,0.,24.0,0.,24.0,0.,24.0
1979-03-01 10:54:21.350 ,6,1,0.,24.0,0.,24.0,0.,24.0,0.,24.0
1979-03-01 10:54:45.350 ,7,1,0.,24.0,0.,24.0,0.,24.0,0.,24.0
1979-03-01 10:55:09.350 ,7,1,0.,24.0,0.,24.0,0.,24.0,0.,24.0
1979-03-01 10:55:33.350 ,6,1,0.,24.0,0.,24.0,0.,24.0,0.,24.0
1979-03-01 10:55:57.350 ,5,1,0.,24.0,0.,24.0,0.,24.0,0.,24.0
1979-03-01 10:56:21.350 ,4,1,0.,24.0,0.,24.0,0.,24.0,0.,24.0
1979-03-01 10:56:45.350 ,3,1,0.,24.0,0.,24.0,0.,24.0,0.,24.0
1979-03-01 10:57:09.350 ,2,1,0.,24.0,0.,24.0,0.,24.0,0.,24.0
1979-03-01 10:57:33.350 ,1,1,0.,24.0,0.,24.0,0.,24.0,0.,24.0
1979-03-01 10:57:57.350 ,0,1,0.,24.0,0.,24.0,0.,24.0,0.,24.0
1979-03-01 10:58:21.350 ,0,1,0.,24.0,0.,24.0,0.,24.0,0.,24.0
1979-03-01 10:58:45.350 ,1,1,0.,24.0,0.,24.0,0.,24.0,0.,24.0
1979-03-01 10:59:09.350 ,2,1,1.,24.0,0.,24.0,0.,24.0,0.,24.0
1979-03-01 10:59:33.350 ,3,1,0.,24.0,0.,24.0,0.,24.0,0.,24.0
1979-03-01 10:59:57.350 ,4,1,0.,24.0,0.,24.0,0.,24.0,0.,24.0
1979-03-01 11:00:21.350 ,5,1,0.,24.0,0.,24.0,0.,24.0,0.,24.0
1979-03-01 11:00:45.350 ,6,1,0.,24.0,0.,24.0,0.,24.0,0.,24.0
1979-03-01 11:01:09.350 ,7,1,0.,24.0,0.,24.0,0.,24.0,0.,24.0
1979-03-01 11:01:33.350 ,7,1,0.,24.0,0.,24.0,0.,24.0,0.,24.0
1979-03-01 11:01:57.350 ,6,1,0.,24.0,0.,24.0,0.,24.0,0.,24.0
1979-03-01 11:02:21.350 ,5,1,0.,24.0,0.,24.0,0.,24.0,0.,24.0
1979-03-01 11:02:45.350 ,4,1,0.,24.0,0.,24.0,0.,24.0,0.,24.0
1979-03-01 11:03:09.350 ,0,0,,0,,0,,0,,0
1979-03-01 11:03:33.350 ,0,0,,0,,0,,0,,0
1979-03-01 11:03:33.350 ,2,1,0.,24.0,0.,24.0,0.,24.0,0.,24.0
1979-03-01 11:03:57.350 ,1,1,0.,24.0,0.,24.0,0.,24.0,0.,24.0
1979-03-01 11:04:21.350 ,0,1,0.,24.0,0.,24.0,0.,24.0,0.,24.0
1979-03-01 11:04:45.350 ,0,1,0.,24.0,0.,24.0,0.,24.0,0.,24.0
1979-03-01 11:05:09.350 ,1,1,0.,24.0,0.,24.0,0.,24.0,0.,24.0
1979-03-01 11:05:33.350 ,2,1,0.,24.0,0.,24.0,0.,24.0,0.,24.0
1979-03-01 11:05:57.350 ,3,1,0.,24.0,0.,24.0,0.,24.0,0.,24.0
1979-03-01 11:06:21.350 ,4,1,0.,24.0,0.,24.0,0.,24.0,0.,24.0
1979-03-01 11:06:45.350 ,5,1,0.,24.0,0.,24.0,0.,24.0,0.,24.0
1979-03-01 11:07:09.350 ,6,1,0.,24.0,0.,24.0,0.,24.0,0.,24.0
1979-03-01 11:07:33.350 ,7,1,0.,24.0,0.,24.0,0.,24.0,0.,24.0
1979-03-01 11:07:57.350 ,7,1,0.,24.0,0.,24.0,0.,24.0,0.,24.0
1979-03-01 11:08:21.350 ,6,1,0.,24.0,0.,24.0,0.,24.0,0.,24.0
1979-03-01 11:08:45.360 ,5,1,0.,24.0,0.,24.0,0.,24.0,0.,24.0
1979-03-01 11:09:09.360 ,4,1,0.,24.0,0.,24.0,0.,24.0,0.,24.0
1979-03-01 11:09:33.360 ,3,1,0.,24.0,0.,24.0,0.,24.0,0.,24.0
1979-03-01 11:09:57.360 ,2,1,0.,24.0,0.,24.0,0.,24.0,0.,24.0
1979-03-01 11:10:21.360 ,1,1,0.,24.0,0.,24.0,0.,24.0,0.,24.0
1979-03-01 11:10:45.360 ,0,1,0.,24.0,0.,24.0,0.,24.0,0.,24.0
1979-03-01 11:11:09.360 ,0,1,0.,24.0,0.,24.0,0.,24.0,0.,24.0
1979-03-01 11:11:33.360 ,1,1,0.,24.0,0.,24.0,0.,24.0,0.,24.0
1979-03-01 11:11:57.360 ,2,1,0.,24.0,0.,24.0,0.,24.0,0.,24.0
1979-03-01 11:12:21.360 ,3,1,0.,24.0,0.,24.0,0.,24.0,0.,24.0
1979-03-01 11:12:45.360 ,4,1,0.,24.0,0.,24.0,0.,24.0,0.,24.0
1979-03-01 11:13:09.360 ,5,1,0.,24.0,0.,24.0,0.,24.0,0.,24.0
1979-03-01 11:13:33.360 ,6,1,0.,24.0,0.,24.0,0.,24.0,0.,24.0
1979-03-01 11:13:57.360 ,7,1,0.,24.0,0.,24.0,0.,24.0,0.,24.0
1979-03-01 11:14:21.360 ,7,1,0.,24.0,0.,24.0,0.,24.0,0.,24.0
1979-03-01 11:14:45.360 ,6,1,0.,24.0,0.,24.0,0.,24.0,0.,24.0
1979-03-01 11:15:09.360 ,5,1,1.,24.0,0.,24.0,0.,24.0,0.,24.0
1979-03-01 11:15:33.360 ,4,1,0.,24.0,0.,24.0,0.,24.0,0.,24.0
1979-03-01 11:15:57.360 ,3,1,0.,24.0,0.,24.0,0.,24.0,0.,24.0
1979-03-01 11:16:21.360 ,2,1,0.,24.0,0.,24.0,0.,24.0,0.,24.0
1979-03-01 11:16:45.360 ,1,1,0.,24.0,0.,24.0,0.,24.0,0.,24.0
1979-03-01 11:17:09.350 ,0,1,0.,24.0,0.,24.0,0.,24.0,0.,24.0
1979-03-01 11:17:33.350 ,0,1,0.,24.0,0.,24.0,0.,24.0,0.,24.0
1979-03-01 11:17:57.350 ,1,1,0.,24.0,0.,24.0,0.,24.0,0.,24.0
1979-03-01 11:18:21.350 ,2,1,0.,24.0,0.,24.0,0.,24.0,0.,24.0
1979-03-01 11:18:45.350 ,3,1,0.,24.0,0.,24.0,0.,24.0,0.,24.0
1979-03-01 11:19:09.350 ,4,1,0.,24.0,0.,24.0,0.,24.0,0.,24.0
1979-03-01 11:19:33.350 ,5,1,0.,24.0,0.,24.0,0.,24.0,0.,24.0
1979-03-01 11:19:57.350 ,6,1,0.,24.0,0.,24.0,0.,24.0,0.,24.0
1979-03-01 11:20:21.350 ,7,1,0.,24.0,0.,24.0,0.,24.0,0.,24.0
1979-03-01 11:20:45.350 ,7,1,0.,24.0,0.,24.0,0.,24.0,0.,24.0
1979-03-01 11:21:09.350 ,6,1,0.,24.0,0.,24.0,0.,24.0,0.,24.0
1979-03-01 11:21:33.350 ,5,1,0.,24.0,0.,24.0,0.,24.0,0.,24.0
1979-03-01 11:21:57.350 ,4,1,0.,24.0,0.,24.0,0.,24.0,0.,24.0
1979-03-01 11:22:21.350 ,3,1,0.,24.0,0.,24.0,0.,24.0,0.,24.0
1979-03-01 11:22:45.350 ,2,1,0.,24.0,0.,24.0,0.,24.0,0.,24.0
1979-03-01 11:23:09.350 ,1,1,0.,24.0,0.,24.0,0.,24.0,0.,24.0
1979-03-01 11:23:33.350 ,0,1,0.,24.0,0.,24.0,0.,24.0,0.,24.0
1979-03-01 11:23:57.350 ,0,1,0.,24.0,0.,24.0,0.,24.0,0.,24.0
1979-03-01 11:24:21.350 ,1,1,0.,24.0,0.,24.0,0.,24.0,0.,24.0
1979-03-01 11:24:45.350 ,2,1,1.,24.0,0.,24.0,0.,24.0,0.,24.0
1979-03-01 11:25:09.350 ,3,1,0.,24.0,0.,24.0,0.,24.0,0.,24.0
1979-03-01 11:26:21.350 ,0,0,0.,24.0,0.,24.0,0.,24.0,0.,24.0
1979-03-01 11:26:45.350 ,7,1,0.,24.0,0.,24.0,0.,24.0,0.,24.0
1979-03-01 11:27:09.350 ,7,1,0.,24.0,0.,24.0,0.,24.0,0.,24.0
1979-03-01 11:27:33.350 ,6,1,0.,24.0,0.,24.0,0.,24.0,0.,24.0
1979-03-01 11:27:57.350 ,5,1,0.,24.0,0.,24.0,0.,24.0,0.,24.0
1979-03-01 11:28:21.350 ,4,1,0.,24.0,0.,24.0,0.,24.0,0.,24.0
1979-03-01 11:28:45.350 ,3,1,0.,24.0,0.,24.0,0.,24.0,0.,24.0
1979-03-01 11:29:09.350 ,2,1,0.,24.0,0.,24.0,0.,24.0,0.,24.0
1979-03-01 11:29:33.350 ,1,1,0.,24.0,0.,24.0,0.,24.0,0.,24.0
1979-03-01 11:29:57.350 ,0,1,0.,24.0,0.,24.0,0.,24.0,0.,24.0
1979-03-01 11:30:21.350 ,0,1,0.,24.0,0.,24.0,0.,24.0,0.,24.0
1979-03-01 11:30:45.350 ,1,1,0.,24.0,0.,24.0,0.,24.0,0.,24.0
1979-03-01 11:31:09.350 ,2,1,1.,24.0,0.,24.0,0.,24.0,0.,24.0
1979-03-01 11:31:33.350 ,3,1,0.,24.0,0.,24.0,0.,24.0,0.,24.0
1979-03-01 11:31:57.350 ,4,1,0.,24.0,0.,24.0,0.,24.0,0.,24.0
1979-03-01 11:32:21.350 ,5,1,0.,24.0,0.,24.0,0.,24.0,0.,24.0
1979-03-01 11:32:45.350 ,6,1,0.,24.0,0.,24.0,0.,24.0,0.,24.0
1979-03-01 11:33:09.350 ,7,1,0.,24.0,0.,24.0,0.,24.0,0.,24.0
1979-03-01 11:33:33.350 ,7,1,0.,24.0,0.,24.0,0.,24.0,0.,24.0
1979-03-01 11:33:57.350 ,6,1,0.,24.0,0.,24.0,0.,24.0,0.,24.0
1979-03-01 11:34:21.350 ,5,1,0.,24.0,0.,24.0,0.,24.0,0.,24.0
1979-03-01 11:34:45.350 ,4,1,0.,24.0,0.,24.0,0.,24.0,0.,24.0
1979-03-01 11:35:09.350 ,3,1,0.,24.0,0.,24.0,0.,24.0,0.,24.0
1979-03-01 11:35:33.350 ,2,1,0.,24.0,0.,24.0,0.,24.0,0.,24.0